CFJRS EINN-LIRA

Flight info

Callsign CFJRS
Flight time 2h 40m
Altitude 39000
Route LUNIG3A LUNIG DCT ENJEX DCT AVZAC DCT ICOSA DCT RUHUN DCT UNZIB DCT NUCHU L18 MID UL612 INPAX/N0453F290 UL612 OGULO DCT OKASI DCT OKEKO DCT MOU DCT MADIV DCT MOKIP DCT TUFTA DCT KOGAS DCT MEDAM DCT NITAM DCT MOGBO DCT ELB/N0454F400 DCT ELKAP
Aircraft CL60/M-SADE3FGHIJ3J4J7P2RWXY/HB1D1

Departure

Time 2026-04-29 00:12
Airport Shannon Airport (EINN)

Arrival

Time 2026-04-29 02:53
Airport Ciampino–G. B. Pastine International Airport (LIRA)
Time Latitude Longitude Altitude Speed Heading
2026-04-29 00:07 52.69891 -8.92933 15 ft 6 kts 312°
2026-04-29 00:08 52.69913 -8.93022 16 ft 9 kts 264°
2026-04-29 00:08 52.69851 -8.93209 17 ft 9 kts 199°
2026-04-29 00:08 52.69878 -8.93114 16 ft 15 kts 49°
2026-04-29 00:08 52.69900 -8.92976 15 ft 12 kts 127°
2026-04-29 00:09 52.69851 -8.92887 14 ft 0 kts 38°
2026-04-29 00:09 52.69867 -8.92893 14 ft 0 kts 318°
2026-04-29 00:09 52.69872 -8.92903 14 ft 7 kts 315°
2026-04-29 00:10 52.69914 -8.92985 16 ft 13 kts 294°
2026-04-29 00:10 52.69855 -8.93202 17 ft 24 kts 232°
2026-04-29 00:10 52.69754 -8.93420 23 ft 23 kts 232°
2026-04-29 00:10 52.69653 -8.93638 26 ft 23 kts 232°
2026-04-29 00:11 52.69553 -8.93850 30 ft 23 kts 232°
2026-04-29 00:11 52.69454 -8.94061 34 ft 22 kts 232°
2026-04-29 00:11 52.69350 -8.94278 39 ft 12 kts 46°
2026-04-29 00:12 52.69434 -8.94107 35 ft 51 kts 52°
2026-04-29 00:12 52.69872 -8.93176 18 ft 145 kts 51°
2026-04-29 00:12 52.70556 -8.91726 481 ft 176 kts 53°
2026-04-29 00:12 52.71352 -8.89990 1046 ft 198 kts 56°
2026-04-29 00:13 52.71979 -8.88032 1591 ft 192 kts 72°
2026-04-29 00:13 52.72242 -8.85937 2125 ft 188 kts 86°
2026-04-29 00:13 52.72143 -8.83783 2646 ft 189 kts 101°
2026-04-29 00:13 52.71688 -8.81770 3142 ft 192 kts 116°
2026-04-29 00:14 52.70930 -8.79935 3651 ft 201 kts 123°
2026-04-29 00:14 52.70034 -8.77936 4317 ft 233 kts 123°
2026-04-29 00:14 52.69027 -8.75682 4849 ft 258 kts 123°
2026-04-29 00:14 52.67921 -8.73382 4986 ft 259 kts 129°
2026-04-29 00:15 52.66648 -8.71284 4988 ft 257 kts 131°
2026-04-29 00:15 52.65367 -8.69206 4983 ft 257 kts 131°
2026-04-29 00:15 52.64104 -8.67152 5036 ft 256 kts 131°
2026-04-29 00:15 52.62832 -8.65081 5111 ft 257 kts 131°
2026-04-29 00:16 52.61534 -8.62965 5304 ft 277 kts 131°
2026-04-29 00:16 52.60179 -8.60755 6640 ft 281 kts 131°
2026-04-29 00:16 52.58823 -8.58550 8081 ft 280 kts 130°
2026-04-29 00:16 52.57455 -8.56322 9313 ft 284 kts 129°
2026-04-29 00:17 52.56047 -8.54029 10474 ft 290 kts 129°
2026-04-29 00:17 52.54622 -8.51710 11573 ft 297 kts 129°
2026-04-29 00:17 52.53159 -8.49332 12677 ft 302 kts 129°
2026-04-29 00:17 52.51648 -8.46878 13735 ft 306 kts 128°
2026-04-29 00:18 52.50135 -8.44424 14709 ft 312 kts 128°
2026-04-29 00:18 52.48593 -8.41925 15642 ft 317 kts 128°
2026-04-29 00:18 52.47002 -8.39348 16553 ft 322 kts 128°
2026-04-29 00:18 52.45412 -8.36775 17412 ft 327 kts 128°
2026-04-29 00:19 52.43792 -8.34159 18257 ft 331 kts 129°
2026-04-29 00:19 52.42144 -8.31497 19050 ft 337 kts 129°
2026-04-29 00:19 52.40530 -8.28752 19786 ft 337 kts 121°
2026-04-29 00:19 52.39444 -8.25436 20552 ft 326 kts 100°
2026-04-29 00:20 52.38894 -8.21857 21283 ft 327 kts 96°
2026-04-29 00:20 52.38382 -8.18241 22002 ft 331 kts 96°
2026-04-29 00:20 52.37859 -8.14591 22708 ft 335 kts 96°
2026-04-29 00:20 52.37325 -8.10875 23434 ft 338 kts 96°
2026-04-29 00:21 52.36784 -8.07116 24138 ft 341 kts 96°
2026-04-29 00:21 52.36236 -8.03322 24821 ft 345 kts 96°
2026-04-29 00:21 52.35680 -7.99479 25465 ft 349 kts 96°
2026-04-29 00:21 52.35116 -7.95590 26125 ft 353 kts 96°
2026-04-29 00:22 52.34553 -7.91715 26726 ft 357 kts 96°
2026-04-29 00:22 52.33970 -7.87720 27362 ft 360 kts 95°
2026-04-29 00:22 52.33385 -7.83728 28005 ft 361 kts 95°
2026-04-29 00:22 52.32801 -7.79741 28545 ft 365 kts 96°
2026-04-29 00:23 52.32205 -7.75683 29079 ft 368 kts 95°
2026-04-29 00:23 52.31596 -7.71548 29598 ft 371 kts 95°
2026-04-29 00:23 52.30993 -7.67467 30110 ft 374 kts 95°
2026-04-29 00:23 52.30371 -7.63264 30574 ft 377 kts 95°
2026-04-29 00:24 52.29747 -7.59070 31095 ft 379 kts 95°
2026-04-29 00:24 52.29118 -7.54841 31551 ft 381 kts 95°
2026-04-29 00:24 52.28478 -7.50551 31992 ft 384 kts 95°
2026-04-29 00:24 52.27839 -7.46291 32454 ft 384 kts 95°
2026-04-29 00:25 52.27199 -7.42038 32923 ft 384 kts 95°
2026-04-29 00:25 52.26549 -7.37723 33334 ft 386 kts 95°
2026-04-29 00:25 52.25910 -7.33489 33696 ft 388 kts 96°
2026-04-29 00:25 52.25256 -7.29157 33980 ft 391 kts 96°
2026-04-29 00:26 52.24593 -7.24791 34328 ft 393 kts 96°
2026-04-29 00:26 52.23933 -7.20460 34735 ft 392 kts 96°
2026-04-29 00:26 52.23280 -7.16191 35157 ft 390 kts 96°
2026-04-29 00:26 52.22626 -7.11931 35555 ft 387 kts 95°
2026-04-29 00:27 52.21969 -7.07653 35885 ft 386 kts 96°
2026-04-29 00:27 52.21317 -7.03417 36211 ft 385 kts 95°
2026-04-29 00:27 52.20665 -6.99192 36516 ft 384 kts 96°
2026-04-29 00:27 52.20009 -6.94940 36762 ft 384 kts 96°
2026-04-29 00:28 52.19358 -6.90741 37090 ft 384 kts 96°
2026-04-29 00:28 52.18697 -6.86485 37365 ft 384 kts 96°
2026-04-29 00:28 52.18029 -6.82194 37658 ft 384 kts 96°
2026-04-29 00:28 52.17360 -6.77907 37858 ft 386 kts 96°
2026-04-29 00:29 52.16696 -6.73670 38138 ft 385 kts 96°
2026-04-29 00:29 52.16027 -6.69409 38360 ft 385 kts 96°
2026-04-29 00:29 52.15361 -6.65175 38576 ft 384 kts 96°
2026-04-29 00:29 52.14691 -6.60930 38722 ft 385 kts 96°
2026-04-29 00:30 52.14018 -6.56671 38862 ft 386 kts 96°
2026-04-29 00:30 52.13557 -6.53764 38994 ft 387 kts 96°
2026-04-29 00:30 52.12660 -6.48118 39218 ft 386 kts 96°
2026-04-29 00:30 52.11975 -6.43825 39343 ft 387 kts 96°
2026-04-29 00:31 52.11301 -6.39596 39295 ft 391 kts 96°
2026-04-29 00:31 52.09901 -6.30851 39336 ft 400 kts 97°
2026-04-29 00:32 52.08474 -6.21988 39334 ft 407 kts 97°
2026-04-29 00:32 52.07016 -6.12990 39316 ft 414 kts 97°
2026-04-29 00:33 52.05466 -6.03917 39335 ft 424 kts 102°
2026-04-29 00:33 52.03042 -5.94997 39331 ft 434 kts 107°
2026-04-29 00:34 52.00491 -5.85964 39307 ft 440 kts 107°
2026-04-29 00:34 51.97894 -5.76802 39342 ft 443 kts 107°
2026-04-29 00:35 51.95284 -5.67623 39312 ft 448 kts 108°
2026-04-29 00:35 51.92675 -5.58479 39321 ft 450 kts 108°
2026-04-29 00:36 51.90005 -5.49155 39318 ft 451 kts 108°
2026-04-29 00:36 51.87339 -5.39880 39356 ft 450 kts 108°
2026-04-29 00:37 51.84667 -5.30623 39336 ft 452 kts 109°
2026-04-29 00:37 51.81966 -5.21293 39320 ft 453 kts 109°
2026-04-29 00:38 51.79283 -5.12061 39307 ft 453 kts 109°
2026-04-29 00:38 51.77235 -5.02639 39308 ft 443 kts 96°
2026-04-29 00:39 51.76070 -4.92823 39290 ft 443 kts 95°
2026-04-29 00:39 51.74908 -4.83083 39321 ft 443 kts 95°
2026-04-29 00:40 51.73733 -4.73302 39323 ft 444 kts 95°
2026-04-29 00:40 51.72542 -4.63454 39297 ft 446 kts 95°
2026-04-29 00:41 51.71339 -4.53582 39332 ft 446 kts 96°
2026-04-29 00:41 51.70115 -4.43610 39323 ft 447 kts 96°
2026-04-29 00:42 51.68897 -4.33753 39323 ft 448 kts 97°
2026-04-29 00:42 51.67669 -4.23884 39322 ft 448 kts 96°
2026-04-29 00:43 51.66431 -4.14012 39313 ft 449 kts 97°
2026-04-29 00:43 51.65180 -4.04097 39310 ft 450 kts 96°
2026-04-29 00:44 51.63914 -3.94141 39297 ft 451 kts 97°
2026-04-29 00:44 51.62637 -3.84169 39298 ft 452 kts 97°
2026-04-29 00:45 51.61346 -3.74169 39302 ft 452 kts 97°
2026-04-29 00:45 51.60051 -3.64193 39298 ft 452 kts 97°
2026-04-29 00:46 51.59087 -3.54072 39283 ft 447 kts 90°
2026-04-29 00:46 51.58517 -3.44002 39300 ft 447 kts 91°
2026-04-29 00:47 51.57935 -3.33988 39309 ft 447 kts 91°
2026-04-29 00:47 51.57338 -3.23881 39283 ft 447 kts 91°
2026-04-29 00:48 51.56732 -3.13821 39295 ft 448 kts 91°
2026-04-29 00:48 51.56118 -3.03769 39303 ft 448 kts 91°
2026-04-29 00:49 51.55494 -2.93713 39302 ft 448 kts 91°
2026-04-29 00:49 51.54857 -2.83613 39284 ft 449 kts 92°
2026-04-29 00:50 51.54211 -2.73500 39279 ft 449 kts 92°
2026-04-29 00:50 51.53553 -2.63343 39286 ft 450 kts 92°
2026-04-29 00:51 51.52893 -2.53297 39284 ft 451 kts 92°
2026-04-29 00:51 51.52217 -2.43157 39295 ft 452 kts 92°
2026-04-29 00:52 51.51533 -2.33020 39276 ft 451 kts 92°
2026-04-29 00:52 51.50834 -2.22793 39282 ft 451 kts 92°
2026-04-29 00:53 51.50133 -2.12667 39281 ft 452 kts 93°
2026-04-29 00:53 51.49425 -2.02588 39282 ft 452 kts 93°
2026-04-29 00:54 51.48701 -1.92413 39271 ft 453 kts 93°
2026-04-29 00:54 51.47970 -1.82249 39266 ft 453 kts 93°
2026-04-29 00:55 51.47197 -1.72080 39263 ft 455 kts 96°
2026-04-29 00:55 51.45337 -1.62318 39256 ft 462 kts 111°
2026-04-29 00:56 51.42540 -1.52763 39259 ft 462 kts 111°
2026-04-29 00:56 51.39764 -1.43327 39263 ft 462 kts 111°
2026-04-29 00:57 51.36964 -1.33849 39256 ft 462 kts 112°
2026-04-29 00:57 51.34174 -1.24474 39253 ft 463 kts 114°
2026-04-29 00:58 51.30647 -1.15540 39252 ft 469 kts 124°
2026-04-29 00:58 51.26671 -1.07114 39254 ft 470 kts 124°
2026-04-29 00:59 51.22657 -0.98638 39252 ft 469 kts 124°
2026-04-29 00:59 51.18683 -0.90266 39257 ft 469 kts 124°
2026-04-29 01:00 51.14697 -0.81892 39249 ft 469 kts 124°
2026-04-29 01:00 51.10709 -0.73539 39249 ft 469 kts 124°
2026-04-29 01:01 51.06617 -0.65244 39247 ft 471 kts 130°
2026-04-29 01:01 51.01599 -0.58422 39244 ft 475 kts 143°
2026-04-29 01:02 50.96039 -0.52492 39244 ft 476 kts 144°
2026-04-29 01:02 50.90497 -0.46594 39235 ft 476 kts 144°
2026-04-29 01:03 50.84966 -0.40726 39233 ft 476 kts 144°
2026-04-29 01:03 50.79350 -0.34785 39232 ft 476 kts 145°
2026-04-29 01:04 50.73783 -0.28913 39227 ft 476 kts 145°
2026-04-29 01:04 50.68180 -0.23021 39219 ft 477 kts 145°
2026-04-29 01:05 50.62623 -0.17194 39221 ft 477 kts 145°
2026-04-29 01:05 50.56994 -0.11309 39217 ft 478 kts 145°
2026-04-29 01:06 50.51422 -0.05501 39210 ft 477 kts 146°
2026-04-29 01:06 50.45829 0.00313 39207 ft 477 kts 146°
2026-04-29 01:07 50.40263 0.06080 39198 ft 478 kts 146°
2026-04-29 01:07 50.34620 0.11913 39195 ft 479 kts 146°
2026-04-29 01:08 50.28957 0.17749 39188 ft 479 kts 146°
2026-04-29 01:08 50.23329 0.23531 39181 ft 479 kts 146°
2026-04-29 01:09 50.17710 0.29301 39186 ft 478 kts 146°
2026-04-29 01:09 50.12106 0.35061 39176 ft 477 kts 146°
2026-04-29 01:10 50.06492 0.40813 39173 ft 478 kts 146°
2026-04-29 01:10 50.00836 0.46592 39165 ft 478 kts 146°
2026-04-29 01:11 49.95172 0.52362 39153 ft 478 kts 146°
2026-04-29 01:11 49.89538 0.58085 39159 ft 478 kts 146°
2026-04-29 01:12 49.84039 0.63985 39158 ft 477 kts 140°
2026-04-29 01:12 49.78889 0.70496 39157 ft 477 kts 141°
2026-04-29 01:13 49.73757 0.76960 39149 ft 477 kts 141°
2026-04-29 01:13 49.68569 0.83471 39151 ft 478 kts 141°
2026-04-29 01:14 49.63399 0.89939 39123 ft 480 kts 141°
2026-04-29 01:14 49.58196 0.96427 39131 ft 479 kts 141°
2026-04-29 01:15 49.52954 1.02942 39116 ft 479 kts 141°
2026-04-29 01:15 49.47714 1.09437 39101 ft 479 kts 142°
2026-04-29 01:16 49.42528 1.15846 39127 ft 479 kts 142°
2026-04-29 01:16 49.37308 1.22278 39135 ft 479 kts 142°
2026-04-29 01:17 49.32056 1.28731 39121 ft 480 kts 142°
2026-04-29 01:17 49.26790 1.35185 39109 ft 480 kts 142°
2026-04-29 01:18 49.21491 1.41660 39112 ft 480 kts 142°
2026-04-29 01:18 49.13578 1.51293 39087 ft 479 kts 142°
2026-04-29 01:19 49.08293 1.57705 39097 ft 478 kts 143°
2026-04-29 01:19 49.03030 1.64073 39089 ft 479 kts 143°
2026-04-29 01:20 48.97748 1.70446 39073 ft 479 kts 144°
2026-04-29 01:20 48.92491 1.76771 39071 ft 479 kts 144°
2026-04-29 01:21 48.87168 1.83158 39063 ft 479 kts 144°
2026-04-29 01:21 48.81865 1.89502 39066 ft 479 kts 144°
2026-04-29 01:22 48.76650 1.95725 39079 ft 480 kts 144°
2026-04-29 01:22 48.71394 2.01980 39078 ft 479 kts 144°
2026-04-29 01:23 48.66134 2.08222 39073 ft 479 kts 144°
2026-04-29 01:23 48.60823 2.14508 39074 ft 479 kts 144°
2026-04-29 01:24 48.55641 2.20978 39068 ft 480 kts 137°
2026-04-29 01:24 48.50930 2.28149 39053 ft 480 kts 136°
2026-04-29 01:25 48.46155 2.35399 39049 ft 480 kts 136°
2026-04-29 01:25 48.41409 2.42582 39048 ft 480 kts 137°
2026-04-29 01:26 48.36676 2.49721 39044 ft 480 kts 137°
2026-04-29 01:26 48.31945 2.56835 39037 ft 479 kts 137°
2026-04-29 01:27 48.26795 2.63138 39044 ft 474 kts 151°
2026-04-29 01:27 48.20926 2.67604 39047 ft 471 kts 156°
2026-04-29 01:28 48.15171 2.72228 39037 ft 472 kts 155°
2026-04-29 01:28 48.09378 2.76893 39019 ft 472 kts 155°
2026-04-29 01:29 48.03443 2.80923 39026 ft 467 kts 160°
2026-04-29 01:29 47.97466 2.84717 39019 ft 468 kts 161°
2026-04-29 01:30 47.91481 2.88511 39026 ft 467 kts 160°
2026-04-29 01:30 47.85455 2.92321 39018 ft 468 kts 161°
2026-04-29 01:31 47.79419 2.96131 39030 ft 468 kts 160°
2026-04-29 01:31 47.73403 2.99918 39014 ft 469 kts 161°
2026-04-29 01:32 47.67426 3.03673 39021 ft 468 kts 161°
2026-04-29 01:32 47.61429 3.07431 39018 ft 467 kts 161°
2026-04-29 01:33 47.55404 3.11197 39021 ft 467 kts 161°
2026-04-29 01:33 47.49374 3.14956 39012 ft 467 kts 161°
2026-04-29 01:34 47.43270 3.18750 38998 ft 469 kts 161°
2026-04-29 01:34 47.37233 3.22494 38991 ft 469 kts 161°
2026-04-29 01:35 47.31194 3.26231 39004 ft 469 kts 161°
2026-04-29 01:35 47.25139 3.29968 39006 ft 469 kts 161°
2026-04-29 01:36 47.19085 3.33695 38989 ft 469 kts 161°
2026-04-29 01:36 47.13021 3.37419 38993 ft 469 kts 161°
2026-04-29 01:37 47.06944 3.41142 38994 ft 469 kts 161°
2026-04-29 01:37 47.00847 3.44868 38993 ft 469 kts 161°
2026-04-29 01:38 46.94741 3.48590 38986 ft 470 kts 161°
2026-04-29 01:38 46.88582 3.52335 38997 ft 469 kts 161°
2026-04-29 01:39 46.82564 3.56220 38994 ft 472 kts 156°
2026-04-29 01:39 46.77061 3.61631 38992 ft 479 kts 143°
2026-04-29 01:40 46.72342 3.68832 38986 ft 485 kts 130°
2026-04-29 01:40 46.68837 3.77324 38992 ft 491 kts 117°
2026-04-29 01:41 46.66651 3.86877 39001 ft 494 kts 105°
2026-04-29 01:41 46.64959 3.96749 38987 ft 495 kts 105°
2026-04-29 01:42 46.63251 4.06590 38994 ft 495 kts 105°
2026-04-29 01:42 46.61545 4.16376 38983 ft 494 kts 105°
2026-04-29 01:43 46.59835 4.26130 38984 ft 495 kts 105°
2026-04-29 01:43 46.58112 4.35903 38982 ft 496 kts 105°
2026-04-29 01:44 46.56377 4.45701 38982 ft 496 kts 105°
2026-04-29 01:44 46.54631 4.55502 38993 ft 496 kts 105°
2026-04-29 01:45 46.52882 4.65275 39006 ft 496 kts 106°
2026-04-29 01:45 46.51120 4.75056 39001 ft 496 kts 106°
2026-04-29 01:46 46.49359 4.84788 39002 ft 497 kts 106°
2026-04-29 01:46 46.47580 4.94567 39003 ft 497 kts 106°
2026-04-29 01:47 46.45800 5.04302 39002 ft 497 kts 106°
2026-04-29 01:47 46.44013 5.14030 39002 ft 496 kts 106°
2026-04-29 01:48 46.42203 5.23843 38996 ft 496 kts 106°
2026-04-29 01:48 46.40388 5.33575 39002 ft 495 kts 107°
2026-04-29 01:49 46.37698 5.42825 39001 ft 492 kts 122°
2026-04-29 01:49 46.33652 5.50885 38999 ft 487 kts 133°
2026-04-29 01:50 46.29221 5.58382 38997 ft 487 kts 133°
2026-04-29 01:50 46.24759 5.65920 39001 ft 487 kts 134°
2026-04-29 01:51 46.20330 5.73385 39005 ft 487 kts 134°
2026-04-29 01:51 46.15873 5.80876 39009 ft 487 kts 134°
2026-04-29 01:52 46.11425 5.88333 39002 ft 487 kts 134°
2026-04-29 01:52 46.06997 5.95737 39016 ft 486 kts 134°
2026-04-29 01:53 46.02578 6.03105 39022 ft 486 kts 134°
2026-04-29 01:53 45.98153 6.10465 39033 ft 486 kts 134°
2026-04-29 01:54 45.93729 6.17802 39016 ft 486 kts 134°
2026-04-29 01:54 45.89243 6.25225 39034 ft 485 kts 134°
2026-04-29 01:55 45.84803 6.32550 39074 ft 486 kts 134°
2026-04-29 01:55 45.80173 6.39590 39080 ft 480 kts 143°
2026-04-29 01:56 45.74807 6.45244 39092 ft 477 kts 148°
2026-04-29 01:56 45.69344 6.50805 39090 ft 477 kts 148°
2026-04-29 01:57 45.63892 6.56343 39087 ft 477 kts 148°
2026-04-29 01:57 45.58442 6.61864 39102 ft 477 kts 148°
2026-04-29 01:58 45.52942 6.67423 39106 ft 477 kts 149°
2026-04-29 01:58 45.47503 6.72907 39118 ft 475 kts 149°
2026-04-29 01:59 45.42059 6.78383 39112 ft 475 kts 149°
2026-04-29 01:59 45.36618 6.83842 39100 ft 476 kts 149°
2026-04-29 02:00 45.31060 6.89405 39105 ft 475 kts 149°
2026-04-29 02:00 45.25666 6.95092 39127 ft 479 kts 141°
2026-04-29 02:01 45.20814 7.01745 39115 ft 481 kts 139°
2026-04-29 02:01 45.16000 7.08375 39109 ft 481 kts 139°
2026-04-29 02:02 45.11208 7.15057 39102 ft 482 kts 135°
2026-04-29 02:02 45.07170 7.22706 39105 ft 485 kts 127°
2026-04-29 02:03 45.03268 7.30567 39105 ft 485 kts 127°
2026-04-29 02:03 44.99364 7.38403 39070 ft 485 kts 128°
2026-04-29 02:04 44.94834 7.45522 39061 ft 480 kts 138°
2026-04-29 02:04 44.90008 7.52262 39052 ft 480 kts 138°
2026-04-29 02:05 44.85229 7.58927 39057 ft 480 kts 138°
2026-04-29 02:05 44.80444 7.65585 39057 ft 480 kts 139°
2026-04-29 02:06 44.75600 7.72311 39053 ft 480 kts 139°
2026-04-29 02:06 44.70792 7.78970 39054 ft 480 kts 139°
2026-04-29 02:07 44.65972 7.85629 39059 ft 480 kts 139°
2026-04-29 02:07 44.61161 7.92260 39057 ft 480 kts 139°
2026-04-29 02:08 44.56278 7.98974 39053 ft 481 kts 139°
2026-04-29 02:08 44.51428 8.05626 39052 ft 481 kts 138°
2026-04-29 02:09 44.46594 8.12240 39054 ft 481 kts 138°
2026-04-29 02:09 44.41760 8.18838 39055 ft 480 kts 138°
2026-04-29 02:10 44.36916 8.25433 39056 ft 480 kts 138°
2026-04-29 02:10 44.32063 8.32024 39057 ft 480 kts 138°
2026-04-29 02:11 44.27245 8.38551 39059 ft 480 kts 138°
2026-04-29 02:11 44.22412 8.45084 39059 ft 480 kts 138°
2026-04-29 02:12 44.17556 8.51633 39052 ft 480 kts 138°
2026-04-29 02:12 44.12719 8.58140 39050 ft 480 kts 138°
2026-04-29 02:13 44.07881 8.64632 39050 ft 480 kts 138°
2026-04-29 02:13 44.02996 8.71172 39051 ft 480 kts 139°
2026-04-29 02:14 43.98090 8.77724 39054 ft 480 kts 139°
2026-04-29 02:14 43.93217 8.84216 39047 ft 479 kts 139°
2026-04-29 02:15 43.88383 8.90641 39052 ft 479 kts 139°
2026-04-29 02:15 43.83523 8.97085 39048 ft 479 kts 139°
2026-04-29 02:16 43.78615 9.03576 39049 ft 479 kts 139°
2026-04-29 02:16 43.73712 9.10046 39052 ft 479 kts 139°
2026-04-29 02:17 43.68817 9.16491 39059 ft 478 kts 139°
2026-04-29 02:17 43.63955 9.22876 39053 ft 478 kts 139°
2026-04-29 02:18 43.59171 9.29144 39055 ft 478 kts 139°
2026-04-29 02:18 43.54357 9.35460 39045 ft 479 kts 137°
2026-04-29 02:19 43.49948 9.42357 39045 ft 480 kts 132°
2026-04-29 02:19 43.45604 9.49317 39046 ft 480 kts 132°
2026-04-29 02:20 43.41230 9.56304 39046 ft 480 kts 132°
2026-04-29 02:20 43.36891 9.63216 39048 ft 480 kts 132°
2026-04-29 02:21 43.32535 9.70135 39044 ft 480 kts 133°
2026-04-29 02:21 43.28172 9.77048 39047 ft 479 kts 133°
2026-04-29 02:22 43.23804 9.83951 39047 ft 479 kts 133°
2026-04-29 02:22 43.19444 9.90823 39051 ft 479 kts 133°
2026-04-29 02:23 43.15067 9.97705 39052 ft 479 kts 133°
2026-04-29 02:23 43.10719 10.04526 39053 ft 479 kts 133°
2026-04-29 02:24 43.06353 10.11358 39050 ft 479 kts 133°
2026-04-29 02:25 42.99769 10.21629 39048 ft 479 kts 133°
2026-04-29 02:25 42.95381 10.28453 39054 ft 479 kts 133°
2026-04-29 02:26 42.91008 10.35241 39055 ft 479 kts 132°
2026-04-29 02:26 42.86570 10.42111 39054 ft 479 kts 132°
2026-04-29 02:27 42.82187 10.48879 39050 ft 479 kts 132°
2026-04-29 02:27 42.77751 10.55715 39052 ft 479 kts 132°
2026-04-29 02:28 42.73333 10.62512 39048 ft 478 kts 131°
2026-04-29 02:28 42.69567 10.69894 39050 ft 479 kts 122°
2026-04-29 02:29 42.66047 10.77602 39051 ft 479 kts 122°
2026-04-29 02:29 42.64285 10.81447 38674 ft 486 kts 122°
2026-04-29 02:29 42.62479 10.85381 38057 ft 486 kts 122°
2026-04-29 02:29 42.60712 10.89228 37479 ft 482 kts 122°
2026-04-29 02:30 42.58933 10.93092 36884 ft 480 kts 122°
2026-04-29 02:30 42.57164 10.96930 36310 ft 479 kts 122°
2026-04-29 02:30 42.55405 11.00742 35660 ft 480 kts 122°
2026-04-29 02:30 42.53629 11.04584 34981 ft 473 kts 122°
2026-04-29 02:31 42.51917 11.08283 34403 ft 461 kts 122°
2026-04-29 02:31 42.50225 11.11935 33838 ft 456 kts 122°
2026-04-29 02:31 42.48568 11.15506 33188 ft 453 kts 121°
2026-04-29 02:31 42.46949 11.19130 32606 ft 448 kts 117°
2026-04-29 02:32 42.45639 11.22901 31952 ft 436 kts 110°
2026-04-29 02:32 42.44712 11.26719 31385 ft 424 kts 103°
2026-04-29 02:32 42.44128 11.30560 30790 ft 414 kts 96°
2026-04-29 02:32 42.43861 11.34397 30224 ft 403 kts 90°
2026-04-29 02:33 42.43759 11.38146 29757 ft 398 kts 90°
2026-04-29 02:33 42.43660 11.41851 29183 ft 397 kts 90°
2026-04-29 02:33 42.43557 11.45583 28668 ft 395 kts 90°
2026-04-29 02:33 42.43454 11.49277 28146 ft 392 kts 90°
2026-04-29 02:34 42.43351 11.52917 27631 ft 390 kts 90°
2026-04-29 02:34 42.43247 11.56560 27119 ft 387 kts 90°
2026-04-29 02:34 42.43141 11.60224 26604 ft 385 kts 90°
2026-04-29 02:34 42.43037 11.63800 26100 ft 382 kts 90°
2026-04-29 02:35 42.42931 11.67401 25593 ft 380 kts 91°
2026-04-29 02:35 42.42825 11.70929 25098 ft 377 kts 91°
2026-04-29 02:35 42.42719 11.74458 24602 ft 374 kts 91°
2026-04-29 02:35 42.42612 11.77976 24097 ft 372 kts 91°
2026-04-29 02:36 42.42506 11.81430 23618 ft 369 kts 91°
2026-04-29 02:36 42.42398 11.84887 23130 ft 366 kts 91°
2026-04-29 02:36 42.42292 11.88287 22653 ft 363 kts 91°
2026-04-29 02:36 42.42185 11.91661 22177 ft 359 kts 91°
2026-04-29 02:37 42.42078 11.95009 21707 ft 355 kts 91°
2026-04-29 02:37 42.41972 11.98291 21243 ft 352 kts 91°
2026-04-29 02:37 42.41864 12.01598 20777 ft 348 kts 91°
2026-04-29 02:37 42.41758 12.04819 20319 ft 345 kts 91°
2026-04-29 02:38 42.41652 12.08041 19866 ft 342 kts 92°
2026-04-29 02:38 42.41545 12.11249 19414 ft 339 kts 92°
2026-04-29 02:38 42.41439 12.14391 18969 ft 337 kts 92°
2026-04-29 02:38 42.41331 12.17581 18509 ft 338 kts 92°
2026-04-29 02:39 42.41222 12.20763 18006 ft 337 kts 92°
2026-04-29 02:39 42.41115 12.23874 17587 ft 334 kts 91°
2026-04-29 02:39 42.41005 12.27046 17135 ft 331 kts 92°
2026-04-29 02:39 42.40897 12.30103 16705 ft 329 kts 92°
2026-04-29 02:40 42.40788 12.33192 16276 ft 326 kts 92°
2026-04-29 02:40 42.40680 12.36221 15858 ft 324 kts 92°
2026-04-29 02:40 42.40571 12.39264 15401 ft 321 kts 92°
2026-04-29 02:40 42.40465 12.42195 14986 ft 311 kts 92°
2026-04-29 02:41 42.40361 12.45058 14581 ft 302 kts 92°
2026-04-29 02:41 42.40259 12.47844 14244 ft 293 kts 92°
2026-04-29 02:41 42.40158 12.50581 13839 ft 293 kts 92°
2026-04-29 02:41 42.40056 12.53326 13450 ft 293 kts 92°
2026-04-29 02:42 42.39865 12.56034 12994 ft 289 kts 103°
2026-04-29 02:42 42.39101 12.58499 12512 ft 284 kts 124°
2026-04-29 02:42 42.37748 12.60426 12058 ft 279 kts 145°
2026-04-29 02:42 42.36039 12.61581 11468 ft 281 kts 164°
2026-04-29 02:43 42.34121 12.61856 10876 ft 278 kts 185°
2026-04-29 02:43 42.32258 12.61484 10639 ft 266 kts 189°
2026-04-29 02:43 42.30425 12.61077 10296 ft 268 kts 188°
2026-04-29 02:43 42.28575 12.60673 9910 ft 268 kts 188°
2026-04-29 02:44 42.26756 12.60275 9560 ft 266 kts 188°
2026-04-29 02:44 42.24940 12.59858 9223 ft 264 kts 192°
2026-04-29 02:44 42.23183 12.59090 8847 ft 263 kts 200°
2026-04-29 02:44 42.21478 12.58228 8493 ft 263 kts 199°
2026-04-29 02:45 42.19769 12.57374 8155 ft 260 kts 199°
2026-04-29 02:45 42.18092 12.56537 7776 ft 258 kts 199°
2026-04-29 02:45 42.16419 12.55703 7457 ft 247 kts 199°
2026-04-29 02:45 42.14857 12.54925 7214 ft 237 kts 199°
2026-04-29 02:46 42.13341 12.54171 6848 ft 229 kts 199°
2026-04-29 02:46 42.11862 12.53436 6543 ft 222 kts 199°
2026-04-29 02:46 42.10392 12.52708 6246 ft 227 kts 199°
2026-04-29 02:46 42.08921 12.51980 5940 ft 223 kts 199°
2026-04-29 02:47 42.07487 12.51270 5664 ft 217 kts 199°
2026-04-29 02:47 42.06075 12.50572 5364 ft 215 kts 199°
2026-04-29 02:47 42.04687 12.49887 5086 ft 212 kts 199°
2026-04-29 02:47 42.03295 12.49200 4798 ft 212 kts 199°
2026-04-29 02:48 42.01918 12.48521 4524 ft 211 kts 199°
2026-04-29 02:48 42.00550 12.47848 4242 ft 210 kts 199°
2026-04-29 02:48 41.99169 12.47201 3962 ft 209 kts 194°
2026-04-29 02:48 41.97747 12.47223 3670 ft 207 kts 163°
2026-04-29 02:49 41.96431 12.48045 3408 ft 207 kts 152°
2026-04-29 02:49 41.95165 12.48925 3112 ft 203 kts 152°
2026-04-29 02:49 41.93960 12.49757 3020 ft 184 kts 152°
2026-04-29 02:49 41.92818 12.50559 2934 ft 189 kts 152°
2026-04-29 02:50 41.91669 12.51362 2673 ft 183 kts 152°
2026-04-29 02:50 41.90539 12.52148 2453 ft 175 kts 153°
2026-04-29 02:50 41.89485 12.52878 2245 ft 168 kts 153°
2026-04-29 02:50 41.88471 12.53580 2040 ft 161 kts 153°
2026-04-29 02:51 41.87511 12.54245 1841 ft 147 kts 152°
2026-04-29 02:51 41.86628 12.54856 1636 ft 140 kts 152°
2026-04-29 02:51 41.85772 12.55448 1448 ft 137 kts 153°
2026-04-29 02:51 41.84920 12.56037 1270 ft 136 kts 153°
2026-04-29 02:52 41.84084 12.56614 1096 ft 135 kts 153°
2026-04-29 02:52 41.83240 12.57185 930 ft 139 kts 153°
2026-04-29 02:52 41.82369 12.57779 807 ft 139 kts 152°
2026-04-29 02:52 41.81543 12.58378 567 ft 133 kts 152°
2026-04-29 02:53 41.80713 12.58945 394 ft 133 kts 153°
2026-04-29 02:53 41.79979 12.59452 390 ft 96 kts 153°
2026-04-29 02:53 41.79698 12.59650 410 ft 6 kts 158°
2026-04-29 02:53 41.79638 12.59618 410 ft 15 kts 240°
2026-04-29 02:54 41.79607 12.59539 407 ft 10 kts 218°
2026-04-29 02:54 41.79535 12.59521 408 ft 12 kts 226°
2026-04-29 02:54 41.79469 12.59414 405 ft 16 kts 231°
2026-04-29 02:54 41.79392 12.59437 408 ft 12 kts 141°
2026-04-29 02:55 41.79349 12.59482 410 ft 3 kts 141°
2026-04-29 02:55 41.79313 12.59519 412 ft 9 kts 141°
2026-04-29 02:55 41.79258 12.59578 416 ft 10 kts 140°
2026-04-29 02:55 41.79205 12.59632 419 ft 6 kts 155°
2026-04-29 02:56 41.79188 12.59663 421 ft 4 kts 70°
2026-04-29 02:56 41.79196 12.59686 421 ft 0 kts 62°
2026-04-29 02:56 41.79201 12.59698 421 ft 0 kts 63°